FW7144 Weather Reports


time (UTC)temp
F
wind
direction
speed
knots
gust
knots
rain 1hr
in
rain 24hr
in
rain mn
in
humidity
%
barometer
mb
20260505014405 72 93 3.5 7.0 0.00 0.00 0.00 42 1019.1
20260505013805 72 100 4.3 7.0 0.00 0.00 0.00 42 1019.0
20260505013205 72 110 5.2 10.4 0.00 0.00 0.00 42 1019.0
20260505012605 73 149 3.5 6.1 0.00 0.00 0.00 42 1019.0
20260505012005 73 173 2.6 5.2 0.00 0.00 0.00 42 1019.0
20260505010805 74 102 0.0 8.7 0.00 0.00 0.00 42 1018.9
20260505010205 75 102 6.1 9.6 0.00 0.00 0.00 40 1018.7
20260505005605 75 104 5.2 9.6 0.00 0.00 0.00 39 1018.7
20260505005005 76 80 5.2 10.4 0.00 0.00 0.00 39 1018.6
20260505004405 76 87 5.2 11.3 0.00 0.00 0.00 38 1018.5
20260505003805 77 97 4.3 10.4 0.00 0.00 0.00 37 1018.5
20260505003205 77 100 5.2 10.4 0.00 0.00 0.00 37 1018.4
20260505002605 77 112 4.3 9.6 0.00 0.00 0.00 36 1018.4
20260505002005 77 106 3.5 9.6 0.00 0.00 0.00 37 1018.4
20260505001417 77 107 5.2 11.3 0.00 0.00 0.00 36 1018.4
20260505000805 78 76 5.2 9.6 0.00 0.00 0.00 36 1018.4
20260505000205 78 100 5.2 10.4 0.00 0.00 0.00 36 1018.4
20260504235606 78 121 5.2 12.2 0.00 0.00 0.00 35 1018.4
20260504235005 79 97 7.0 12.2 0.00 0.00 0.00 35 1018.4
20260504234405 79 103 4.3 13.9 0.00 0.00 0.00 35 1018.3
20260504233831 79 91 8.7 17.4 0.00 0.00 0.00 35 1018.4
20260504233205 79 81 7.0 14.8 0.00 0.00 0.00 35 1018.3
20260504232605 80 99 8.7 15.6 0.00 0.00 0.00 34 1018.3
20260504232005 80 95 7.0 12.2 0.00 0.00 0.00 34 1018.3
20260504231405 81 98 7.8 12.2 0.00 0.00 0.00 33 1018.4
20260504230805 81 99 7.0 13.9 0.00 0.00 0.00 33 1018.3
20260504230217 82 100 6.1 7.8 0.00 0.00 0.00 32 1018.3
20260504225605 83 127 0.0 6.1 0.00 0.00 0.00 27 1018.4
20260504225005 83 92 0.0 3.5 0.00 0.00 0.00 28 1018.4
20260504224405 83 109 1.7 7.8 0.00 0.00 0.00 26 1018.5
20260504223805 83 112 5.2 7.8 0.00 0.00 0.00 27 1018.5
20260504223205 84 137 0.0 3.5 0.00 0.00 0.00 25 1018.6
20260504222605 84 335 0.0 5.2 0.00 0.00 0.00 26 1018.6
20260504222005 84 325 0.9 5.2 0.00 0.00 0.00 27 1018.7
20260504221405 84 264 0.0 5.2 0.00 0.00 0.00 26 1018.7
20260504220805 84 298 0.0 9.6 0.00 0.00 0.00 25 1018.7
20260504220243 85 303 0.0 9.6 0.00 0.00 0.00 25 1018.7
20260504215631 86 18 0.9 6.1 0.00 0.00 0.00 25 1018.8
20260504215018 85 100 0.9 6.1 0.00 0.00 0.00 23 1018.8
20260504214405 85 335 0.0 10.4 0.00 0.00 0.00 23 1018.9
20260504213805 85 41 0.0 7.8 0.00 0.00 0.00 24 1019.0
20260504213205 84 42 1.7 6.1 0.00 0.00 0.00 24 1019.1
20260504212605 85 23 0.0 9.6 0.00 0.00 0.00 26 1019.1
20260504212005 85 27 0.0 12.2 0.00 0.00 0.00 24 1019.2
20260504211405 84 19 5.2 8.7 0.00 0.00 0.00 27 1019.2
20260504210806 83 295 1.7 7.8 0.00 0.00 0.00 25 1019.3
20260504210205 83 277 0.0 11.3 0.00 0.00 0.00 28 1019.3
20260504205605 84 265 3.5 10.4 0.00 0.00 0.00 30 1019.5
20260504205005 83 279 3.5 6.1 0.00 0.00 0.00 29 1019.6
20260504204405 83 277 0.0 7.8 0.00 0.00 0.00 30 1019.7
20260504203817 83 311 1.7 8.7 0.00 0.00 0.00 31 1019.7
20260504203230 84 303 0.0 8.7 0.00 0.00 0.00 31 1019.9
20260504202605 82 303 3.5 11.3 0.00 0.00 0.00 34 1020.0
20260504202005 81 227 0.0 9.6 0.00 0.00 0.00 33 1020.0
20260504201405 82 277 4.3 9.6 0.00 0.00 0.00 32 1020.2
20260504200817 81 317 1.7 7.0 0.00 0.00 0.00 34 1020.3
20260504200205 80 310 0.0 12.2 0.00 0.00 0.00 35 1020.4
20260504195605 80 299 1.7 7.8 0.00 0.00 0.00 35 1020.5
20260504195005 79 221 1.7 12.2 0.00 0.00 0.00 35 1020.5
20260504194405 79 246 2.6 9.6 0.00 0.00 0.00 37 1020.5
20260504193805 79 2 1.7 7.8 0.00 0.00 0.00 37 1020.6
20260504193205 80 288 0.9 7.0 0.00 0.00 0.00 38 1020.7
20260504192605 80 282 0.0 9.6 0.00 0.00 0.00 38 1020.7
20260504192005 79 292 4.3 7.8 0.00 0.00 0.00 37 1020.8
20260504191405 78 207 0.0 9.6 0.00 0.00 0.00 39 1020.8
20260504190805 79 315 0.0 7.8 0.00 0.00 0.00 40 1020.9
20260504190205 78 297 1.7 10.4 0.00 0.00 0.00 38 1021.0
20260504185605 79 270 1.7 11.3 0.00 0.00 0.00 41 1021.1
20260504185005 77 280 3.5 7.0 0.00 0.00 0.00 39 1021.1
20260504184405 76 311 0.0 7.8 0.00 0.00 0.00 40 1021.3
20260504183805 75 284 1.7 9.6 0.00 0.00 0.00 40 1021.4
20260504183205 77 262 0.0 8.7 0.00 0.00 0.00 41 1021.5
20260504182605 76 303 1.7 7.8 0.00 0.00 0.00 43 1021.5
20260504182017 76 284 1.7 7.0 0.00 0.00 0.00 45 1021.6
20260504181405 75 316 1.7 3.5 0.00 0.00 0.00 45 1021.6
20260504180805 74 36 0.0 6.1 0.00 0.00 0.00 44 1021.8
20260504180217 73 310 3.5 7.8 0.00 0.00 0.00 46 1021.9
20260504175605 73 231 1.7 8.7 0.00 0.00 0.00 45 1021.8
20260504175005 73 289 1.7 7.8 0.00 0.00 0.00 48 1021.9
20260504174430 73 349 0.0 7.8 0.00 0.00 0.00 47 1021.9
20260504173205 73 290 2.6 7.8 0.00 0.00 0.00 51 1022.0
20260504172605 72 271 0.9 9.6 0.00 0.00 0.00 50 1022.1
20260504172006 71 298 1.7 9.6 0.00 0.00 0.00 52 1022.2
20260504171405 71 273 0.0 7.8 0.00 0.00 0.00 50 1022.3
20260504170806 70 313 2.6 9.6 0.00 0.00 0.00 52 1022.3
20260504170205 70 256 2.6 9.6 0.00 0.00 0.00 55 1022.4
20260504160205 62 192 0.0 6.1 0.00 0.00 0.00 70 1023.2
20260504150805 57 285 0.0 3.5 0.00 0.00 0.00 80 1023.6
20260504150229 56 252 0.0 5.2 0.00 0.00 0.00 81 1023.6
20260504140829 54 175 0.0 1.7 0.00 0.00 0.00 85 1023.3
20260504140205 54 152 0.0 2.6 0.00 0.00 0.00 85 1023.3
20260504130806 53 171 0.0 2.6 0.00 0.00 0.00 87 1023.2
20260504130230 52 354 0.0 0.0 0.00 0.00 0.00 88 1023.1
20260504120230 49 163 0.0 0.0 0.00 0.00 0.00 89 1022.8
20260504110205 46 9 0.0 0.0 0.00 0.00 0.00 89 1022.5
20260504100217 46 89 0.0 0.0 0.00 0.00 0.00 89 1022.9
20260504082005 45 75 0.0 0.0 0.00 0.00 0.00 86 1023.0
20260504081405 45 54 0.0 0.0 0.00 0.00 0.00 86 1023.2
20260504080805 45 54 0.0 0.0 0.00 0.00 0.00 85 1023.3
20260504080217 45 54 0.0 0.0 0.00 0.00 0.00 85 1023.3
20260504070205 46 96 0.0 1.7 0.00 0.00 0.00 84 1023.6
20260504060205 49 128 0.9 0.0 0.00 0.00 0.00 81 1023.2
20260504050205 51 44 0.0 0.0 0.00 0.00 0.00 80 1023.3
20260504045605 51 44 0.0 0.0 0.00 0.00 0.00 80 1023.2
20260504045005 52 44 0.0 0.0 0.00 0.00 0.00 79 1023.3
20260504044405 53 44 0.0 1.7 0.00 0.00 0.00 78 1023.3
20260504043842 53 74 0.0 1.7 0.00 0.00 0.00 76 1023.3
20260504043205 55 213 0.0 0.0 0.00 0.00 0.00 78 1023.3
20260504042605 55 238 0.0 2.6 0.00 0.00 0.00 77 1023.2
20260504042005 55 210 0.0 0.0 0.00 0.00 0.00 77 1023.2
20260504041405 56 253 0.0 0.0 0.00 0.00 0.00 74 1023.2
20260504040805 57 252 0.0 0.0 0.00 0.00 0.00 72 1023.1
20260504040205 58 252 0.0 2.6 0.00 0.00 0.00 70 1023.1
20260504035605 59 260 0.0 2.6 0.00 0.00 0.00 68 1023.2
20260504035042 60 261 0.9 2.6 0.00 0.00 0.00 67 1023.2
20260504034405 60 226 0.0 1.7 0.00 0.00 0.00 65 1023.2
20260504033805 61 263 0.0 4.3 0.00 0.00 0.00 65 1023.2
20260504033230 62 258 1.7 6.1 0.00 0.00 0.00 64 1022.9
20260504032605 62 249 3.5 7.8 0.00 0.00 0.00 63 1022.8
20260504032005 62 284 3.5 5.2 0.00 0.00 0.00 64 1022.8
20260504031405 61 266 1.7 6.1 0.00 0.00 0.00 63 1022.7
20260504030805 61 256 1.7 6.1 0.00 0.00 0.00 63 1022.7
20260504030205 60 253 1.7 3.5 0.00 0.00 0.00 62 1022.6
20260504025605 60 263 0.9 2.6 0.00 0.00 0.00 60 1022.5
20260504025005 61 250 1.7 4.3 0.00 0.00 0.00 61 1022.4
20260504024405 61 280 0.0 3.5 0.00 0.00 0.00 60 1022.4
20260504023805 61 194 0.0 5.2 0.00 0.00 0.00 58 1022.2
20260504023205 59 37 1.7 1.7 0.00 0.00 0.00 62 1022.2
20260504022605 60 54 0.0 5.2 0.00 0.00 0.00 57 1022.1
20260504022005 60 57 1.7 5.2 0.00 0.00 0.00 57 1022.0
20260504021405 58 78 0.0 2.6 0.00 0.00 0.00 61 1021.9
20260504020805 59 107 0.0 1.7 0.00 0.00 0.00 59 1021.7
20260504020205 60 93 0.0 1.7 0.00 0.00 0.00 56 1021.6
20260504015605 60 74 0.0 0.0 0.00 0.00 0.00 55 1021.5
20260504015005 61 281 0.0 0.0 0.00 0.00 0.00 57 1021.4